Location: Austin
(30.3000°N, 97.7500°W)
Time: 05:50:15
(UTC-06:00)

SL-12 R/B(2) - Pass Details

Date: 03 March 2026
Orbit: 1170 x 2179 km, 63.4° (Epoch: 5 March)

Event Time Altitude Azimuth Distance (km) Brightness Sun altitude
Rises 20:08:55 0° 204° (SSW) 4,050 7.0 -21.8°
Reaches altitude 10° 20:11:29 10° 203° (SSW) 3,124 6.3 -22.4°
Maximum altitude 20:18:52 82° 117° (ESE) 1,319 4.0 -24.0°
Drops below altitude 10° 20:27:36 10° 31° (NNE) 3,658 6.3 -25.8°
Sets 20:30:51 0° 31° (NNE) 4,783 6.9 -26.5°
